Location: Praha
(50.0830°N, 14.4670°E)
Time: 16:51:25
(UTC+02:00)

ISS - Pass Details

Date: 21 May 2020
Orbit: 417 x 420 km, 51.6° (Epoch: 25 May)

Event Time Altitude Azimuth Distance (km) Brightness Sun altitude
Rises 00:41:45 0° 286° (WNW) 2,369 0.3 -19.6°
Reaches altitude 10° 00:43:51 10° 285° (WNW) 1,504 -0.7 -19.6°
Enters shadow 00:47:09 82° 236° (SW) 429 -3.9 -19.6°
